Regional Weather Roundup
Issued by NWS

Home | Current Version | Previous Version | Text Only | Print | Product List | Glossary On
Versions: 1 2 3 4 5 6 7 8 9 10 11 12 13 14 15 16 17 18 19 20 21 22 23 24 25 26 27 28 29 30 31 32 33 34 35 36 37 38 39 40 41 42 43 44 45 46 47 48 49 50
000
ASUS43 KBIS 201810
RWRND

NORTH DAKOTA REGIONAL WEATHER ROUNDUP
NATIONAL WEATHER SERVICE BISMARCK ND
100 PM CDT FRI APR 20 2018

NOTE: "FAIR" INDICATES FEW OR NO CLOUDS BELOW 12,000 FEET WITH NO
SIGNIFICANT WEATHER AND/OR OBSTRUCTIONS TO VISIBILITY.


NDZ001>003-009>011-017-201900-
NORTHWEST NORTH DAKOTA

CITY           SKY/WX    TMP DP  RH WIND       PRES   REMARKS
WILLISTON      SUNNY     57  32  38 SE13G20   30.19F
6HR MIN TEMP:  33; 6HR MAX TEMP:  57;

MINOT          CLOUDY    54  29  38 SE12      30.27F
MINOT AFB      CLOUDY    55  31  40 S14       30.26F
$$

NDZ018>021-031>035-040>046-201900-
SOUTHWEST NORTH DAKOTA

CITY           SKY/WX    TMP DP  RH WIND       PRES   REMARKS
BISMARCK       PTSUNNY   57  31  37 SE15      30.28F
6HR MIN TEMP:  32; 6HR MAX TEMP:  57;

DICKINSON      MOSUNNY   57  30  35 SE18      30.17F
GARRISON         N/A     51  33  50 E17       30.25F
6HR MIN TEMP:  30; 6HR MAX TEMP:  51;

HETTINGER ARPT PTSUNNY   50  30  46 SE15      30.19F
$$

NDZ004>008-012>016-024-026-027-054-201900-
NORTHEAST NORTH DAKOTA

CITY           SKY/WX    TMP DP  RH WIND       PRES   REMARKS
GRAND FORKS    FAIR      50  35  56 SW7       30.40F
GRND FRKS AFB  FAIR      52  30  43 S13       30.40S
DEVILS LAKE    FAIR      50  24  36 SE10      30.37S
$$

NDZ022-023-025-028>030-036>039-047>053-201900-
SOUTHEAST NORTH DAKOTA

CITY           SKY/WX    TMP DP  RH WIND       PRES   REMARKS
FARGO          FAIR      53  33  46 S13       30.42S
6HR MIN TEMP:  33; 6HR MAX TEMP:  53;

JAMESTOWN      PTSUNNY   52  30  43 S13       30.35F
$$





USA.gov is the U.S. government's official web portal to all federal, state and local government web resources and services.